Location: Blairvadach
(56.2780°N, 6.9720°W)
Time: 08:30:46
(UTC+01:00)

Envisat - Pass Details

Date: 23 February 2019
Orbit: 764 x 766 km, 98.1° (Epoch: 21 October)

Event Time Altitude Azimuth Distance (km) Brightness Sun altitude
Rises 20:22:10 0° 210° (SSW) 3,224 6.4 -21.9°
Reaches altitude 10° 20:25:05 10° 227° (SW) 2,303 5.8 -22.3°
Maximum altitude 20:28:43 20° 273° (W) 1,742 5.7 -22.8°
Drops below altitude 10° 20:32:23 10° 319° (NW) 2,315 6.3 -23.3°
Sets 20:35:21 0° 337° (NNW) 3,246 6.9 -23.7°
